Regional Weather Roundup
Issued by NWS San Angelo, TX

Current Version | Previous Version | Text Only | Print | Product List | Glossary On
Versions: 1 2 3 4 5 6 7 8 9 10 11 12 13 14 15 16 17 18 19 20 21 22 23 24 25 26 27 28 29 30 31 32 33 34 35 36 37 38 39 40 41 42 43 44 45 46 47 48 49 50
000
ASUS44 KSJT 051210
RWRSJT
WEST CENTRAL TEXAS REGIONAL WEATHER ROUNDUP
NATIONAL WEATHER SERVICE SAN ANGELO TX
700 AM CDT WED AUG 05 2015

NOTE: "FAIR" INDICATES FEW OR NO CLOUDS BELOW 12,000 FEET WITH NO
SIGNIFICANT WEATHER AND/OR OBSTRUCTIONS TO VISIBILITY.

TXZ049-054-064>066-071>073-076>078-098-099-113-114-127-128-139-140-
154-155-168>170-051300
...LOCATIONS ACROSS WEST CENTRAL TEXAS...

CITY           SKY/WX    TMP DP  RH WIND       PRES   REMARKS
SAN ANGELO     CLEAR     79  71  76 S14       29.99R
ABILENE        CLEAR     79  66  64 S9        29.97R
DYESS AFB      CLEAR     80  66  63 S12       29.96R
JUNCTION       CLEAR     77  70  79 S3        30.02R
SWEETWATER     CLEAR     78  63  59 S13       30.02S
BROWNWOOD      NOT AVBL
COLEMAN        SUNNY     76  69  79 S8        29.99S
SONORA         CLEAR     77  72  83 S8        30.06S
OZONA          FAIR      77  70  78 S8G18     30.05R
BRADY          CLEAR     79  73  83 S8        30.01R
$$

TEXAS PANHANDLE/OKLAHOMA PANHANDLE

CITY           SKY/WX    TMP DP  RH WIND       PRES   REMARKS
AMARILLO       CLEAR     71  64  78 SW13      30.01S
BORGER         CLEAR     74  66  76 SW8       29.97S
CANADIAN       CLEAR     70  68  95 N3        29.94R
DALHART        CLEAR     69  65  86 W6        30.05R
DUMAS          SUNNY     69  65  85 S8        30.00S
GUYMON         NOT AVBL
HEREFORD       SUNNY     74  64  72 MISG      30.04S
PAMPA          SUNNY     70  67  89 S7        30.00R
PERRYTON       NOT AVBL
$$

SOUTHERN PANHANDLE/SOUTH PLAINS/ROLLING PLAINS

CITY           SKY/WX    TMP DP  RH WIND       PRES   REMARKS
LUBBOCK        PTCLDY    76  62  62 SW12      30.02R
SNYDER         CLEAR     74  62  64 S9        30.01R
CHILDRESS      CLEAR     73  66  78 S6        29.92R
SEMINOLE       SUNNY     71  61  71 SW6       30.04S
$$

PERMIAN BASIN

CITY           SKY/WX    TMP DP  RH WIND       PRES   REMARKS
MIDLAND        CLEAR     77  61  57 SW5       30.02R
ODESSA         CLEAR     79  60  52 S10       30.03R
WINK           CLEAR     77  62  59 SE9       29.99S
$$

FAR WEST/SOUTHWEST MOUNTAINS/TRANS PECOS

CITY           SKY/WX    TMP DP  RH WIND       PRES   REMARKS
ALPINE         SUNNY     65  59  79 SW8       30.19S
DRYDEN           N/A     78  68  71 W3        29.99R
EL PASO        PTCLDY    78  54  43 S8        30.07R
FORT STOCKTON  CLEAR     76  59  55 S12       30.02S
GUADALUPE PASS CLEAR     73  53  49 W13       30.20S
MARFA          CLEAR     59  57  94 N5        30.18S
PECOS          SUNNY     73  59  61 CALM      29.98S
$$

DALLAS/FORT WORTH METROPLEX

CITY           SKY/WX    TMP DP  RH WIND       PRES   REMARKS
DFW AIRPORT    MOCLDY    83  69  62 S14       29.94R
FTW MEACHAM    PTCLDY    83  70  64 S10       29.94R
DAL-EXECUTIVE  CLEAR     80  70  71 VRB6      29.95R
GRAND PRAIRIE  CLEAR     81  72  74 S9        29.95S
ADDISON        NOT AVBL
MESQUITE       SUNNY     79  72  78 S7        29.96R
LANCASTER      SUNNY     80  70  72 S8        29.96R
$$

NORTH CENTRAL TEXAS

CITY           SKY/WX    TMP DP  RH WIND       PRES   REMARKS
SHRMAN/DENISON SUNNY     82  72  72 S10       29.94S
GAINESVILLE    PTCLDY    77  69  76 S3        29.95S
BRIDGEPORT     NOT AVBL
DENTON         CLEAR     80  70  71 S8        29.93S
WAXAHACHIE     SUNNY     78  72  81 S9        29.97S
GRANBURY       SUNNY     82  69  65 SE7       29.97R
$$

WESTERN NORTH TEXAS

CITY           SKY/WX    TMP DP  RH WIND       PRES   REMARKS
WICHITA FALLS  CLEAR     75  68  78 S9        29.90R
VERNON         SUNNY     74  65  72 S6        29.91R
BRECKENRIDGE   SUNNY     81  66  61 S8        29.95R
COMANCHE       PTCLDY    78  72  81 S9        29.98R
$$

CENTRAL AND SOUTH CENTRAL TEXAS

CITY           SKY/WX    TMP DP  RH WIND       PRES   REMARKS
AUSTIN/BERGSTM PTCLDY    77  74  90 S9        29.99R
WACO           CLEAR     79  73  82 S10       29.97R
HILLSBORO      SUNNY     79  71  77 S10       29.97S
TEMPLE         CLEAR     77  70  78 S10       29.98R
KILLEEN-GRAY   NOT AVBL
FORT HOOD      CLEAR     77  73  85 S10       29.97R
GEORGETOWN     PTCLDY    79  72  78 S8        29.98S
LAGO VISTA     PTSUNNY   77  72  83 S8        30.02R
SAN MARCOS     MOCLDY    79  75  89 S9        30.01R FOG
NEW BRAUNFELS  MOCLDY    78  75  90 S3        29.99R
RANDOLPH AFB   MOCLDY    78  74  88 S7        30.00S
SAN ANTONIO    PTCLDY    79  72  79 S9        30.01R
STINSON        PTCLDY    78  74  87 S5        29.98R
PLEASANTON     NOT AVBL
LA GRANGE      CLOUDY    77  77  98 CALM      29.98R FOG
GIDDINGS       PTSUNNY   77  75  93 S7        30.03S
$$

EAST TEXAS

CITY           SKY/WX    TMP DP  RH WIND       PRES   REMARKS
PARIS          CLEAR     79  66  65 S8        29.94R
CLARKSVILLE    NOT AVBL
TYLER          CLEAR     80  73  79 SW10      29.98R
LONGVIEW       CLEAR     80  73  79 SW6       29.97R
PALESTINE      MOSUNNY   78  75  91 S6        29.99R
NACOGDOCHES    CLEAR     75  73  94 S3        29.98R
$$

TEXAS HILL COUNTRY AND EDWARDS PLATEAU

CITY           SKY/WX    TMP DP  RH WIND       PRES   REMARKS
LLANO          SUNNY     77  70  78 CALM      30.03R
HORSESHOE BAY  FAIR      77  72  83 CALM      30.00R
KERRVILLE      MOCLDY    74  71  91 S8        30.04R
FREDERICKSBRG  PTCLDY    74  69  84 S8        30.03S
ROCKSPRINGS    MOSUNNY   73  72  94 S12       30.06S FOG
HONDO          PTCLDY    76  74  93 E6        30.02R
UVALDE         SUNNY     74  73  95 E6        30.00R
DEL RIO        CLEAR     80  73  79 E10       29.95S
$$

SOUTHEAST TEXAS

CITY           SKY/WX    TMP DP  RH WIND       PRES   REMARKS
COLLEGE STN    CLEAR     77  75  93 S6        29.99R
CALDWELL       PTSUNNY   77  77 100 S5        30.02R
CROCKETT       MOSUNNY   77  77 100 CALM      30.01S FOG
BRENHAM        MOCLDY    77  77  98 CALM      30.00R FOG
HUNTSVILLE     CLEAR     78  76  93 SW5       30.00R
CONROE         CLEAR     75  73  93 CALM      30.00R
HOUSTON BUSH   PTCLDY    80  77  90 CALM      29.99R
HOUSTON HOBBY  PTCLDY    79  76  90 S3        29.99R
PERLAND        CLEAR     79  74  84 CALM      30.01R
WHARTON          N/A     74  73  97 CALM      30.00R FOG
$$

THE UPPER TEXAS COAST

CITY           SKY/WX    TMP DP  RH WIND       PRES   REMARKS
ORANGE         MOSUNNY   80  80 100 CALM      30.01R
PORT ARTHUR    PTCLDY    78  76  93 S3        29.99R
GALVESTON      PTCLDY    85  76  74 S10       30.00R
ANGLETON       CLEAR     77  75  93 CALM      29.99R
BAY CITY       MOSUNNY   78  77  98 CALM      29.99R
$$

TEXAS COASTAL BEND, RIO GRANDE PLAINS DEEP SOUTH TEXAS

CITY           SKY/WX    TMP DP  RH WIND       PRES   REMARKS
VICTORIA       CLEAR     77  77 100 S5        29.99R
BEEVILLE       FAIR      72  72 100 S7        29.97S
ROCKPORT       MOCLDY    83  77  82 S8        29.96R
PORT ARANSAS   PTSUNNY   82  79  89 S8        29.97R
PORT LAVACA    MOSUNNY   79  77  94 CALM      29.98R
CORPUS CHRISTI PTCLDY    79  77  94 SE6       29.97R
KINGSVILLE NAS PTCLDY    77  77 100 SE3       29.97R FOG
COTULLA        CLEAR     78  74  87 SE7       29.96R
LAREDO         CLEAR     80  74  82 SE9       29.96S
BROWNSVILLE    CLEAR     81  77  88 S7        29.95R
PORT ISABEL    CLEAR     79  77  94 SE3       29.95R
HEBBRONVILLE     N/A     76  75  95 SE7       29.98S
MCALLEN        PTCLDY    82  76  81 SE7       29.95R
WESLACO        PTCLDY    79  75  89 SE5       29.94S
FALFURRIAS     SUNNY     76  74  94 E3        29.95S
EDINBURG       PTSUNNY   78  75  89 CALM      29.96R
$$


USA.gov is the U.S. government's official web portal to all federal, state and local government web resources and services.